Meath Environmental Platform

Observations for Trim Patrick St

Time AQI Temp °C Hum % Pres Pa CO μg/m³ H₂S μg/m³ NO μg/m³ NO₂ μg/m³ O₃ μg/m³ SO₂ μg/m³ PM1 μg/m³ PM2.5 μg/m³ PM10 μg/m³
Monday 3 August 2026
19:02 4 23 48 68,926 0 19.32 1.01 37.37 82.82 6.5 2.86 8.88 9.76
19:01 4 23.1 47 68,922 0 19.85 1 40.94 82.83 6.58 2.86 8.92 9.81
19:00 4 23.1 47 68,914 0 19.46 0.98 39.76 74.55 6.59 2 7.39 8.12
18:59 4 23.1 47 68,904 0 19.19 1 42.58 76.17 6.9 2 7.39 8.13
18:58 4 23.1 47 68,890 0 18.08 1 36.99 82.24 6.86 2.86 8.16 8.98
18:57 4 23.1 46 68,876 0 18.32 1.01 35.84 75.68 6.94 3.71 8.96 9.86
18:56 4 23.1 47 68,886 0 18.32 1.02 32.27 86.6 6.9 3.71 8.17 8.99
18:55 4 23.2 46 68,898 0 18.5 1.02 38.17 69.79 7.31 2.86 8.2 9.02
18:54 4 23.2 45 68,884 0 18 0.99 33.39 82.88 6.86 3.71 9.04 9.95
18:53 4 23.2 46 68,869 0 19.27 0.98 38.58 71 7.14 2.86 8.2 9.02
18:52 4 23.2 46 68,875 0 20.41 0.98 47.05 73.71 7.07 2 7.44 8.19
18:51 4 23.2 46 68,886 0 18.61 1 35.06 80.05 7.1 3.71 9.78 10.76
18:50 4 23.2 46 68,873 0 18.66 0.99 35.84 91.79 6.98 2.86 8.22 9.04
18:49 4 23.3 45 68,880 0 17.65 0.99 36.62 82.53 6.96 3.71 9.04 9.94
18:48 4 23.3 45 68,896 0 17.73 1.01 30.45 83.62 6.38 3.71 9.06 9.97
18:47 4 23.4 45 68,886 0 18.47 1 32.8 78.88 7.18 3.71 9.83 10.81
18:46 4 23.4 45 68,875 0 17.22 1 31.17 80.15 6.73 2.86 7.52 8.27
18:45 4 23.4 45 68,884 0 17.65 0.99 34.99 97.67 6.69 3.71 9.06 9.96
18:43 4 23.5 44 68,890 0 19.13 0.96 33.62 94.03 7.52 2.86 9.09 10
18:42 4 23.5 44 68,904 0 17.17 0.97 29.99 96.39 6.85 2.86 8.32 9.16